User: anonymous   Login
Location: Morlupo
(42.1333°N, 12.5000°E)
Time: 20:38:24
(UTC+00:00)
Language:

Cosmos 1833 Rocket - Orbit

View from above orbital plane
View from above orbital plane
View from above satellite
View from above satellite

Ground track
Ground track

The orbit data is extracted from the following two-line orbital elements,

1 17590U 87027B   20333.48828866 -.00000207  00000-0 -79600-4 0  9994
2 17590  71.0043  15.9604 0005665 207.5018 152.5807 14.16792790742624
Epoch (UTC): 28 November 2020 11:43:08
Eccentricity: 0.0005665
inclination: 71.0043°
perigee height: 832 km
apogee height: 840 km
right ascension of ascending node: 15.9604°
argument of perigee: 207.5018°
revolutions per day: 14.16792790
mean anomaly at epoch: 152.5807°
orbit number at epoch: 74262

The dashed part of the orbit path shows where the satellite is in the earth's shadow,  

DLR